ONEWEB-0362 (49288 NORAD) Tracking and Keplerian Element Data

This shows tracking and keplerian element data for the satellite.

Feedback or suggestion? Click here.




ElementValue
Catalog49288
NameONEWEB-0362
Epoch Orbit919
Epoch Day340.25001157
Epoch Year2021
RAAN276.1798
Inclination87.5226
Eccentricity0.0009061
Argument of Perigee85.3268
Mean Anonmoly254.2741
Mean Motion14.43031072
Decay Rate-0.00867018
L11 49288U 21090K 21340.25001157 -.00867018 00000+0 -27458+0 0 9990
L22 49288 87.5226 276.1798 0009061 85.3268 254.2741 14.43031072 9190

Live tracking and technical data element details for ONEWEB-0362 (NORAD 49288). ONEWEB-0362 can be tracked NOW for your location showing map with azimuth and elevation plus other details from your city location.

Track the satellite on the map from your city or location and see movement details for azimuth, elevation, latitude, longitude, range, height, and movement on the map or in text.







IsCatalogInMostPopularTable: catalog: 49288, numindb: 8
Update: records affected: 1



GetName: 49288 ONEWEB-0362

Hit Count: updated at: Mon, 06 Dec 2021 15:47:44 GMT